Starlink 31964

operational
NORAD ID: 59895 Int'l Des: 2024-100 Owner: SPXS Country: US Constellation: starlink
LEOCIRCULAR

About Starlink 31964

Description loading...

Live Position

Loading 3D Globe...

Upcoming Passes

Altitude History

Altitude vs Time

uPlot chart will show altitude changes over time

Two-Line Element Set

1 59895U 24100L 25306.20448720 .00001248 00000-0 54870-4 0 9999
2 59895 43.0035 125.0246 0001116 271.3459 88.7265 15.27566557 81614
Epoch: Nov 2, 2025 • Age: 39 hours

Current Status

Altitude 482.2 km
Velocity 7.63 km/s
Sub-Earth Point 14.02°N, 144.42°E
Launch Date May 28, 2024
Age 1.4 years
Type internet

Technical Details

Classification Payload
Mass 730.00 kg
Dry Mass 700.00 kg
Total Mass 730.00 kg
Length 0.30 m
Diameter 4.10 m
Span 29.00 m
Shape Box + pan
Manufacturer SPXS
Bus Type Starlink V2M
Phase Status In Orbit
Owner/State SPXS/US

Large Constellations

Loading constellations...